TimeMDT,TemperatureF,Dew PointF,Humidity,Sea Level PressureIn,VisibilityMPH,Wind Direction,Wind SpeedMPH,Gust SpeedMPH,PrecipitationIn,Events,Conditions,WindDirDegrees,DateUTC
12:53 AM,37.0,25.0,62,29.92,10.0,SW,5.8,-,N/A,,Clear,220,2012-10-09 06:53:00
2:53 AM,33.1,24.1,70,29.94,10.0,Calm,Calm,-,N/A,,Clear,0,2012-10-09 08:53:00
3:53 AM,32.0,24.1,73,29.95,10.0,Calm,Calm,-,N/A,,Clear,0,2012-10-09 09:53:00
4:53 AM,32.0,24.1,73,29.96,10.0,Calm,Calm,-,N/A,,Clear,0,2012-10-09 10:53:00
5:53 AM,30.9,23.0,72,29.98,10.0,Calm,Calm,-,N/A,,Clear,0,2012-10-09 11:53:00
6:53 AM,28.0,21.0,75,30.01,10.0,SSW,6.9,-,N/A,,Clear,210,2012-10-09 12:53:00
7:53 AM,32.0,19.9,61,30.04,10.0,Calm,Calm,-,N/A,,Clear,0,2012-10-09 13:53:00
8:53 AM,36.0,26.1,67,30.06,10.0,East,4.6,-,N/A,,Clear,90,2012-10-09 14:53:00
9:53 AM,44.1,25.0,47,30.05,10.0,Calm,Calm,-,N/A,,Clear,0,2012-10-09 15:53:00
10:53 AM,54.0,16.0,22,30.04,10.0,Variable,3.5,-,N/A,,Clear,0,2012-10-09 16:53:00
11:53 AM,55.9,19.9,25,30.03,10.0,SW,4.6,-,N/A,,Clear,220,2012-10-09 17:53:00
12:53 PM,60.1,21.9,23,30.03,10.0,WNW,5.8,-,N/A,,Clear,290,2012-10-09 18:53:00
1:53 PM,64.0,21.0,19,30.00,10.0,WNW,4.6,-,N/A,,Clear,300,2012-10-09 19:53:00
2:53 PM,64.9,19.9,18,30.00,10.0,Variable,3.5,-,N/A,,Clear,0,2012-10-09 20:53:00
3:53 PM,66.9,19.0,16,29.98,10.0,West,3.5,-,N/A,,Clear,280,2012-10-09 21:53:00
4:53 PM,66.0,25.0,21,29.98,10.0,Variable,4.6,-,N/A,,Clear,0,2012-10-09 22:53:00
5:53 PM,63.0,25.0,24,29.98,10.0,WSW,6.9,-,N/A,,Clear,250,2012-10-09 23:53:00
6:53 PM,57.9,21.9,25,30.00,10.0,WSW,4.6,-,N/A,,Clear,250,2012-10-10 00:53:00
7:53 PM,50.0,28.0,43,30.02,10.0,SW,4.6,-,N/A,,Clear,220,2012-10-10 01:53:00
8:53 PM,45.0,26.1,48,30.03,10.0,SW,3.5,-,N/A,,Clear,230,2012-10-10 02:53:00
9:53 PM,43.0,26.1,51,30.03,9.0,Calm,Calm,-,N/A,,Clear,0,2012-10-10 03:53:00
10:53 PM,39.9,24.1,53,30.02,9.0,Calm,Calm,-,N/A,,Clear,0,2012-10-10 04:53:00
11:53 PM,37.9,23.0,55,30.02,10.0,Calm,Calm,-,N/A,,Clear,0,2012-10-10 05:53:00